Location: Palo Alto
(37.4420°N, 122.1420°W)
Time: 10:55:11
(UTC-07:00)

X-37B - Pass Details

Date: 15 August 2020
Orbit: 386 x 387 km, 45.0° (Epoch: 18 September)

Event Time Altitude Azimuth Distance (km) Brightness Sun altitude
Rises 21:04:42 0° 298° (WNW) 2,265 6.6 -12.6°
Reaches altitude 10° 21:07:04 10° 315° (NW) 1,410 4.7 -13.1°
Maximum altitude 21:09:38 22° 9° (N) 893 2.6 -13.5°
Enters shadow 21:11:55 12° 60° (ENE) 1,312 3.0 -13.9°
